�N����,����,�~����,�C��,���x,�C��,����,���ϕ���,�ő�u�ԕ���,�ő厞����,���˗�,�I�_���x,�n�����x,�ő啗���N��,DTYPE
"21/02/24","00:10",0.0,2.8,89.6,1015.9,231.7,1.5,4.1,138.1,0.00,1.3,130.0,"00:06:40",1
"21/02/24","00:20",0.0,3.1,88.8,1016.1,310.3,2.0,4.0,333.7,0.00,1.5,130.0,"00:10:56",1
"21/02/24","00:30",0.0,3.1,88.3,1016.1,277.1,1.6,2.8,336.4,0.00,1.4,130.0,"00:21:28",1
"21/02/24","00:40",0.0,2.7,88.0,1016.1,329.6,1.2,3.2,334.7,0.00,1.0,130.0,"00:32:56",1
"21/02/24","00:50",0.0,2.0,87.8,1016.4,301.7,1.6,3.3,331.1,0.00,0.2,130.0,"00:45:20",1
"21/02/24","01:00",0.0,1.7,88.0,1016.1,303.9,1.8,2.9,323.2,0.00,0.0,130.0,"00:51:20",1
"21/02/24","01:10",0.0,2.0,88.1,1016.4,287.6,1.7,2.9,311.6,0.00,0.3,130.0,"01:07:04",1
"21/02/24","01:20",0.0,2.2,88.2,1016.6,305.9,1.3,3.3,330.5,0.00,0.5,130.0,"01:14:40",1
"21/02/24","01:30",0.0,2.0,88.0,1016.4,293.0,1.2,2.4,294.9,0.00,0.3,130.0,"01:24:00",1
"21/02/24","01:40",0.0,1.7,88.3,1016.4,293.4,2.1,3.9,326.3,0.00,0.0,130.0,"01:32:40",1
"21/02/24","01:50",0.0,2.1,88.7,1016.1,301.8,1.6,4.5,281.0,0.00,0.5,130.0,"01:48:32",1
"21/02/24","02:00",0.0,2.7,88.0,1016.6,331.6,2.1,3.4,330.4,0.00,1.0,130.0,"01:59:04",1
"21/02/24","02:10",0.0,2.1,87.9,1016.6,294.0,1.5,3.2,321.0,0.00,0.3,130.0,"02:03:52",1
"21/02/24","02:20",0.0,2.7,87.7,1016.4,322.6,2.7,8.1,343.9,0.00,0.9,130.0,"02:17:52",1
"21/02/24","02:30",0.0,3.0,86.6,1016.8,320.4,2.2,4.4,332.2,0.00,1.0,130.0,"02:22:32",1
"21/02/24","02:40",0.0,2.9,86.1,1016.6,325.9,1.1,2.5,338.3,0.00,0.8,130.0,"02:34:08",1
"21/02/24","02:50",0.0,2.6,85.4,1016.6,302.5,1.5,2.9,317.6,0.00,0.4,130.0,"02:45:12",1
"21/02/24","03:00",0.0,2.5,85.0,1016.6,296.4,1.6,4.5,308.2,0.00,0.3,130.0,"02:51:52",1
"21/02/24","03:10",0.0,2.7,84.6,1016.4,272.8,2.1,3.3,333.6,0.00,0.4,130.0,"03:09:28",1
"21/02/24","03:20",0.0,3.0,83.5,1016.6,333.0,2.5,4.7,326.4,0.00,0.5,130.0,"03:16:00",1
"21/02/24","03:30",0.0,3.2,82.0,1016.6,336.8,1.7,3.3,333.4,0.00,0.5,130.0,"03:23:20",1
"21/02/24","03:40",0.0,3.2,80.9,1016.6,327.2,1.1,4.1,332.8,0.00,0.3,130.0,"03:33:28",1
"21/02/24","03:50",0.0,3.0,79.8,1016.4,299.0,1.7,3.2,333.3,0.00,-0.1,130.0,"03:44:00",1
"21/02/24","04:00",0.0,2.4,79.5,1016.1,278.1,1.1,2.1,280.1,0.00,-0.7,130.0,"03:59:52",1
"21/02/24","04:10",0.0,2.3,79.9,1016.4,310.5,1.8,3.3,322.5,0.00,-0.8,130.0,"04:01:36",1
"21/02/24","04:20",0.0,2.0,80.9,1016.4,315.7,2.7,4.1,318.3,0.00,-0.9,130.0,"04:10:40",1
"21/02/24","04:30",0.0,1.9,81.8,1016.4,293.3,1.8,2.6,322.7,0.00,-0.8,130.0,"04:24:40",1
"21/02/24","04:40",0.0,1.8,82.6,1016.6,301.4,1.7,3.1,322.4,0.00,-0.8,130.0,"04:38:24",1
"21/02/24","04:50",0.0,1.7,83.2,1016.6,324.5,2.3,3.7,336.1,0.00,-0.8,130.0,"04:44:00",1
"21/02/24","05:00",0.0,1.4,83.9,1016.4,295.9,1.7,3.5,335.4,0.00,-1.0,130.0,"04:59:20",1
"21/02/24","05:10",0.0,1.2,84.6,1016.8,291.8,2.0,3.2,346.4,0.00,-1.1,130.0,"05:00:16",1
"21/02/24","05:20",0.0,1.1,85.1,1016.8,318.6,2.0,2.9,329.1,0.00,-1.1,130.0,"05:12:00",1
"21/02/24","05:30",0.0,0.9,85.7,1016.4,306.3,1.7,2.9,345.9,0.00,-1.2,130.0,"05:27:44",1
"21/02/24","05:40",0.0,1.0,86.3,1017.1,309.7,1.6,2.5,339.2,0.00,-1.0,130.0,"05:38:00",1
"21/02/24","05:50",0.0,1.0,86.6,1017.1,303.2,1.7,3.3,323.4,0.00,-0.9,130.0,"05:43:52",1
"21/02/24","06:00",0.0,0.8,87.0,1016.8,312.7,2.0,3.2,333.5,0.00,-1.1,130.0,"05:52:08",1
"21/02/24","06:10",0.0,0.5,87.5,1017.1,294.2,1.8,3.4,335.9,0.00,-1.3,130.0,"06:06:24",1
"21/02/24","06:20",0.0,0.4,88.1,1017.3,309.0,1.1,2.9,314.8,0.00,-1.3,130.0,"06:17:52",1
"21/02/24","06:30",0.0,0.3,88.5,1017.1,298.6,1.5,2.5,319.8,0.00,-1.3,130.0,"06:24:00",1
"21/02/24","06:40",0.0,0.5,88.9,1017.1,300.6,1.7,2.9,336.8,0.00,-1.1,130.0,"06:36:48",1
"21/02/24","06:50",0.0,0.4,89.0,1017.1,299.5,1.5,2.5,332.5,0.00,-1.2,130.0,"06:47:36",1
"21/02/24","07:00",0.0,0.4,89.4,1017.3,301.2,1.3,2.0,329.5,0.00,-1.1,130.0,"06:56:56",1
"21/02/24","07:10",0.0,0.6,89.7,1017.5,313.1,1.8,3.4,331.9,0.00,-0.9,130.0,"07:09:08",1
"21/02/24","07:20",0.0,0.7,89.9,1017.5,309.5,1.7,3.5,317.5,0.00,-0.7,130.0,"07:16:24",1
"21/02/24","07:30",0.0,1.2,90.2,1017.8,270.2,1.6,3.5,338.4,0.02,-0.2,130.0,"07:29:28",1
"21/02/24","07:40",0.0,1.6,90.1,1018.2,299.1,2.0,3.2,326.6,0.02,0.2,130.0,"07:34:00",1
"21/02/24","07:50",0.0,2.3,90.0,1018.5,294.3,1.2,2.1,305.5,0.03,0.9,130.0,"07:41:04",1
"21/02/24","08:00",0.0,3.0,89.5,1018.7,316.4,1.7,2.8,322.1,0.06,1.5,130.0,"07:56:02",1
"21/02/24","08:10",0.0,3.8,87.8,1019.4,318.0,1.7,3.4,332.1,0.09,2.0,130.0,"08:06:52",1
"21/02/24","08:20",0.0,4.7,84.6,1019.7,327.9,2.0,4.0,315.1,0.11,2.4,130.0,"08:13:08",1
"21/02/24","08:30",0.0,4.7,79.7,1020.1,327.1,3.6,6.5,314.5,0.13,1.5,130.0,"08:24:26",1
"21/02/24","08:40",0.0,4.9,74.5,1020.4,323.7,3.9,6.8,329.8,0.15,0.8,130.0,"08:37:18",1
"21/02/24","08:50",0.0,5.3,70.8,1020.6,328.0,3.6,6.6,345.8,0.19,0.5,130.0,"08:42:42",1
"21/02/24","09:00",0.0,5.7,67.8,1020.6,347.7,2.3,8.5,337.0,0.25,0.3,130.0,"08:56:00",1
"21/02/24","09:10",0.0,5.6,65.4,1020.6,340.8,4.0,7.5,336.2,0.27,-0.3,130.0,"09:05:36",1
"21/02/24","09:20",0.0,5.8,64.0,1021.1,329.3,3.1,7.4,341.9,0.21,-0.4,130.0,"09:13:44",1
"21/02/24","09:30",0.0,5.5,62.2,1020.6,325.7,4.2,8.7,324.4,0.22,-1.1,130.0,"09:27:24",1
"21/02/24","09:40",0.0,5.4,61.1,1020.6,333.9,4.9,8.0,308.4,0.18,-1.4,130.0,"09:37:38",1
"21/02/24","09:50",0.0,5.5,61.1,1020.6,331.4,5.1,8.5,341.0,0.22,-1.4,130.0,"09:41:44",1
"21/02/24","10:00",0.0,6.4,59.5,1020.6,334.7,3.9,7.3,338.8,0.35,-0.9,130.0,"09:57:46",1
"21/02/24","10:10",0.0,6.6,57.9,1021.3,334.6,3.9,7.8,336.4,0.39,-1.1,130.0,"10:02:50",1
"21/02/24","10:20",0.0,6.1,58.2,1020.8,338.4,4.7,9.1,341.9,0.29,-1.5,130.0,"10:16:58",1
"21/02/24","10:30",0.0,6.4,57.8,1020.6,336.3,5.1,10.1,335.3,0.35,-1.3,130.0,"10:22:00",1
"21/02/24","10:40",0.0,5.9,55.4,1020.8,349.1,4.9,12.0,321.7,0.27,-2.3,130.0,"10:35:48",1
"21/02/24","10:50",0.0,7.0,53.9,1020.1,355.2,2.6,6.8,335.2,0.50,-1.7,130.0,"10:41:02",1
"21/02/24","11:00",0.0,6.8,53.1,1020.4,354.3,2.7,5.6,359.2,0.35,-2.0,130.0,"10:54:16",1
"21/02/24","11:10",0.0,7.3,51.9,1020.1,346.7,2.8,5.8,345.0,0.44,-1.9,130.0,"11:07:38",1
"21/02/24","11:20",0.0,7.0,51.4,1019.9,341.5,3.9,7.8,330.8,0.45,-2.3,130.0,"11:17:20",1
"21/02/24","11:30",0.0,7.3,48.8,1020.1,345.2,3.2,6.2,351.2,0.52,-2.7,130.0,"11:23:28",1
"21/02/24","11:40",0.0,7.5,47.3,1019.9,351.0,3.6,9.6,339.7,0.52,-3.0,130.0,"11:39:30",1
"21/02/24","11:50",0.0,7.4,48.6,1019.9,342.4,5.1,9.4,347.5,0.52,-2.7,130.0,"11:48:08",1
"21/02/24","12:00",0.0,7.7,48.1,1019.9,341.8,4.5,9.1,351.4,0.53,-2.5,130.0,"11:59:20",1
"21/02/24","12:10",0.0,8.0,47.4,1019.7,340.2,5.1,9.1,331.0,0.54,-2.5,130.0,"12:03:38",1
"21/02/24","12:20",0.0,8.0,47.8,1019.2,344.4,4.4,8.2,345.5,0.54,-2.4,130.0,"12:16:22",1
"21/02/24","12:30",0.0,8.2,48.2,1019.2,342.4,4.9,8.8,303.2,0.54,-2.1,130.0,"12:20:46",1
"21/02/24","12:40",0.0,8.0,46.9,1019.2,349.5,4.9,9.5,337.9,0.54,-2.6,130.0,"12:37:06",1
"21/02/24","12:50",0.0,8.4,48.3,1018.7,348.2,3.9,8.7,339.5,0.52,-1.8,130.0,"12:48:18",1
"21/02/24","13:00",0.0,8.6,47.5,1019.2,348.3,4.1,9.1,352.1,0.52,-1.9,130.0,"12:51:36",1
"21/02/24","13:10",0.0,8.5,46.0,1018.7,357.7,2.7,5.2,18.2,0.53,-2.4,130.0,"13:02:02",1
"21/02/24","13:20",0.0,8.1,45.6,1018.7,344.6,3.7,8.9,322.6,0.43,-2.9,130.0,"13:14:58",1
"21/02/24","13:30",0.0,8.2,46.3,1018.5,348.9,3.7,7.7,340.9,0.43,-2.6,130.0,"13:20:16",1
"21/02/24","13:40",0.0,8.3,44.6,1018.2,0.2,3.7,6.2,1.1,0.49,-3.0,130.0,"13:32:48",1
"21/02/24","13:50",0.0,8.3,44.7,1018.2,345.7,4.0,9.8,341.4,0.42,-3.0,130.0,"13:44:34",1
"21/02/24","14:00",0.0,8.3,44.0,1018.5,341.8,4.1,7.4,331.0,0.45,-3.2,130.0,"13:52:44",1
"21/02/24","14:10",0.0,8.4,43.2,1018.0,13.0,3.2,7.1,14.4,0.44,-3.3,130.0,"14:02:42",1
"21/02/24","14:20",0.0,8.7,42.6,1018.0,346.3,3.4,6.7,333.4,0.44,-3.3,130.0,"14:15:16",1
"21/02/24","14:30",0.0,8.5,44.4,1018.2,339.3,4.7,8.3,356.5,0.43,-2.9,130.0,"14:21:22",1
"21/02/24","14:40",0.0,8.0,43.8,1018.2,356.8,4.0,7.8,317.2,0.32,-3.5,130.0,"14:37:14",1
"21/02/24","14:50",0.0,8.1,43.6,1018.5,345.9,4.0,10.3,340.2,0.38,-3.5,130.0,"14:47:10",1
"21/02/24","15:00",0.0,8.0,43.0,1018.5,0.3,3.9,7.9,16.0,0.34,-3.8,130.0,"14:54:04",1
"21/02/24","15:10",0.0,8.0,43.9,1018.0,356.5,4.6,7.5,349.4,0.35,-3.5,130.0,"15:07:06",1
"21/02/24","15:20",0.0,8.3,43.5,1018.7,352.9,3.0,6.0,348.1,0.33,-3.3,130.0,"15:19:24",1
"21/02/24","15:30",0.0,8.0,43.0,1018.7,348.1,4.0,8.2,345.4,0.31,-3.8,130.0,"15:24:26",1
"21/02/24","15:40",0.0,8.1,43.1,1018.5,351.7,2.7,5.5,358.5,0.27,-3.6,130.0,"15:30:48",1
"21/02/24","15:50",0.0,7.9,42.8,1018.7,350.6,3.4,7.3,329.4,0.24,-3.9,130.0,"15:48:24",1
"21/02/24","16:00",0.0,7.5,43.6,1019.0,357.4,3.6,6.7,345.7,0.21,-4.0,130.0,"15:51:36",1
"21/02/24","16:10",0.0,7.2,44.5,1019.2,347.1,4.5,7.7,333.1,0.18,-4.0,130.0,"16:08:56",1
"21/02/24","16:20",0.0,7.0,44.9,1019.0,351.0,3.9,5.9,331.6,0.14,-4.1,130.0,"16:13:46",1
"21/02/24","16:30",0.0,6.7,45.3,1019.0,354.6,4.0,7.4,337.7,0.11,-4.3,130.0,"16:22:14",1
"21/02/24","16:40",0.0,6.7,46.4,1019.2,354.1,3.4,6.7,348.9,0.10,-3.9,130.0,"16:39:52",1
"21/02/24","16:50",0.0,6.7,46.0,1019.4,348.3,2.3,4.8,21.9,0.08,-4.1,130.0,"16:41:46",1
"21/02/24","17:00",0.0,6.5,45.3,1019.2,341.6,2.8,6.0,347.9,0.06,-4.4,130.0,"16:54:08",1
"21/02/24","17:10",0.0,6.1,45.5,1019.4,338.7,4.2,8.6,326.4,0.04,-4.8,130.0,"17:02:00",1
"21/02/24","17:20",0.0,5.6,46.4,1019.4,338.2,4.6,9.0,320.1,0.02,-4.9,130.0,"17:19:36",1
"21/02/24","17:30",0.0,5.2,47.3,1019.7,335.0,5.6,8.7,305.9,0.00,-5.1,130.0,"17:20:40",1
"21/02/24","17:40",0.0,4.9,47.7,1019.7,327.5,4.9,7.8,332.5,0.00,-5.2,130.0,"17:32:32",1
"21/02/24","17:50",0.0,4.7,48.4,1019.7,334.6,5.1,10.3,327.8,0.00,-5.2,130.0,"17:41:14",1
"21/02/24","18:00",0.0,4.5,50.4,1019.9,327.4,4.4,6.3,327.2,0.00,-4.9,130.0,"17:50:16",1
"21/02/24","18:10",0.0,4.3,51.6,1019.7,324.8,4.6,8.3,332.5,0.00,-4.7,130.0,"18:06:38",1
"21/02/24","18:20",0.0,4.0,52.9,1019.7,328.9,3.9,5.8,329.3,0.00,-4.7,130.0,"18:18:00",1
"21/02/24","18:30",0.0,3.7,54.1,1019.7,321.1,4.2,8.7,327.9,0.00,-4.7,130.0,"18:21:44",1
"21/02/24","18:40",0.0,3.7,54.4,1019.4,330.0,2.5,4.2,330.8,0.00,-4.6,130.0,"18:39:20",1
"21/02/24","18:50",0.0,3.4,55.6,1019.2,324.7,2.7,4.9,327.6,0.00,-4.6,130.0,"18:46:32",1
"21/02/24","19:00",0.0,3.0,57.9,1019.4,337.0,1.5,2.0,318.5,0.00,-4.4,130.0,"18:50:26",1
"21/02/24","19:10",0.0,2.4,60.9,1019.2,326.5,2.5,4.1,341.9,0.00,-4.3,130.0,"19:03:14",1
"21/02/24","19:20",0.0,2.2,63.5,1019.4,319.7,3.0,4.4,308.1,0.00,-4.0,130.0,"19:12:04",1
"21/02/24","19:30",0.0,1.8,65.3,1019.0,312.6,2.6,3.7,325.1,0.00,-4.0,130.0,"19:29:04",1
"21/02/24","19:40",0.0,1.5,66.9,1019.0,312.8,2.7,3.9,319.8,0.00,-3.9,130.0,"19:31:12",1
"21/02/24","19:50",0.0,1.4,68.1,1019.0,312.6,2.5,3.7,328.9,0.00,-3.8,130.0,"19:42:32",1
"21/02/24","20:00",0.0,1.1,69.1,1019.4,309.6,2.3,3.3,331.0,0.00,-3.9,130.0,"19:53:44",1
"21/02/24","20:10",0.0,1.0,70.0,1019.4,321.0,2.2,2.9,319.8,0.00,-3.8,130.0,"20:09:12",1
"21/02/24","20:20",0.0,0.9,70.9,1019.2,309.7,2.5,3.5,324.1,0.00,-3.7,130.0,"20:18:08",1
"21/02/24","20:30",0.0,0.8,71.7,1018.7,292.7,2.2,2.9,313.5,0.00,-3.7,130.0,"20:20:08",1
"21/02/24","20:40",0.0,0.8,72.5,1019.0,299.6,2.6,3.2,304.3,0.00,-3.5,130.0,"20:37:30",1
"21/02/24","20:50",0.0,1.1,73.0,1019.2,295.8,3.1,4.2,310.4,0.00,-3.2,130.0,"20:47:44",1
"21/02/24","21:00",0.0,1.6,73.0,1019.4,311.7,4.0,5.9,320.4,0.00,-2.7,130.0,"20:58:04",1
"21/02/24","21:10",0.0,2.0,72.3,1019.4,319.3,5.2,6.6,330.4,0.00,-2.4,130.0,"21:00:10",1
"21/02/24","21:20",0.0,2.3,71.2,1019.9,319.4,4.6,6.2,326.6,0.00,-2.3,130.0,"21:15:16",1
"21/02/24","21:30",0.0,2.5,69.9,1019.9,319.6,4.1,4.8,332.2,0.00,-2.4,130.0,"21:26:20",1
"21/02/24","21:40",0.0,2.4,68.9,1020.1,315.7,4.5,6.5,332.4,0.00,-2.7,130.0,"21:35:00",1
"21/02/24","21:50",0.0,2.3,68.8,1020.4,319.0,4.9,5.9,331.3,0.00,-2.8,130.0,"21:47:46",1
"21/02/24","22:00",0.0,2.1,69.4,1020.1,318.8,4.5,6.8,326.1,0.00,-2.9,130.0,"21:58:32",1
"21/02/24","22:10",0.0,2.0,70.0,1019.9,320.3,4.5,5.6,330.1,0.00,-2.9,130.0,"22:01:08",1
"21/02/24","22:20",0.0,2.1,70.2,1020.4,322.0,5.1,6.7,324.7,0.00,-2.7,130.0,"22:19:10",1
"21/02/24","22:30",0.0,2.2,69.9,1020.4,324.5,5.6,7.4,335.5,0.00,-2.7,130.0,"22:20:30",1
"21/02/24","22:40",0.0,1.9,70.1,1020.1,326.2,5.0,6.0,328.2,0.00,-2.9,130.0,"22:32:36",1
"21/02/24","22:50",0.0,1.9,70.4,1020.6,323.8,4.9,6.5,321.5,0.00,-2.9,130.0,"22:41:42",1
"21/02/24","23:00",0.0,1.7,71.1,1020.1,324.4,3.9,6.2,321.3,0.00,-2.9,130.0,"22:59:44",1
"21/02/24","23:10",0.0,1.6,71.9,1019.9,325.8,4.0,6.6,334.1,0.00,-2.9,130.0,"23:02:58",1
"21/02/24","23:20",0.0,1.3,73.1,1019.9,325.5,3.4,5.7,328.5,0.00,-2.9,130.0,"23:14:24",1
"21/02/24","23:30",0.0,1.5,73.7,1019.9,327.2,4.5,6.8,336.9,0.00,-2.6,130.0,"23:20:16",1
"21/02/24","23:40",0.0,1.5,74.3,1020.1,322.3,3.6,6.6,320.7,0.00,-2.5,130.0,"23:30:26",1
"21/02/24","23:50",0.0,1.8,74.6,1020.4,319.6,4.7,7.0,333.1,0.00,-2.2,130.0,"23:45:22",1
"21/02/24","24:00",0.0,1.9,74.5,1020.1,322.2,5.5,6.8,322.0,0.00,-2.1,130.0,"23:50:36",1
